Location: Star Hoppers Observatory
(42.7905°N, 83.6127°W)
Time: 07:58:24
(UTC-05:00)

Amateur Radio Satellites - All Passes

Search period start: 07 February 2016 07:28
Search period end: 08 February 2016 07:28
Location: Star Hoppers Observatory, 42.7905°N, 83.6127°W

Satellite Date Start Highest point End Downlink Frequencies (MHz)
Time Altitude Azimuth
DOVE 4 07 Feb 07:30:29 07:33:44 21° 93° (E) 07:36:54 437.250
GOMX 1 07 Feb 07:32:52 07:37:14 45° 98° (E) 07:41:21 467.674
CUTE-I 07 Feb 07:34:09 07:39:23 54° 289° (WNW) 07:44:36 437.470
STRAND 1 07 Feb 07:35:16 07:40:00 38° 262° (W) 07:44:48 437.568
Cubesat XI-IV 07 Feb 07:47:00 07:52:03 42° 291° (WNW) 07:57:05 437.490
SO-50 07 Feb 07:47:35 07:51:32 23° 319° (NW) 07:55:30 436.795
BRITE-PL 07 Feb 07:48:50 07:53:43 61° 287° (WNW) 07:58:10 437.365/2234.400
LilacSat-2 07 Feb 07:48:54 07:52:04 26° 291° (WNW) 07:55:14 437.200
PRISM 07 Feb 07:56:09 08:00:15 60° 259° (W) 08:04:24 437.425
CUTE 1.7 + AOD 2 07 Feb 08:20:16 08:24:04 30° 96° (E) 08:27:52 437.475
COMPASS 1 07 Feb 08:24:13 08:27:15 19° 93° (E) 08:30:16 437.405
SEEDS 07 Feb 08:32:10 08:35:58 31° 96° (E) 08:39:46 437.485
GONETS M04 07 Feb 08:32:36 08:39:37 29° 82° (E) 08:46:40
Cosmos 2504 07 Feb 08:44:12 08:46:50 11° 308° (NW) 08:49:30 435.465 / 435.565
CINEMA 3 07 Feb 08:47:05 08:51:07 48° 99° (E) 08:55:08 145.822/145.860
TIGRISAT 07 Feb 08:48:20 08:49:34 11° 61° (ENE) 08:50:48 435.000
AAUSAT CUBESAT 2 07 Feb 08:55:17 08:59:07 33° 97° (E) 09:02:56 437.432
HO-68 07 Feb 08:56:30 09:03:43 70° 104° (ESE) 09:10:53 435.675
O/OREOS (USA 219) 07 Feb 08:57:28 09:01:53 66° 110° (ESE) 09:06:22 437.305
FUNcube-1 07 Feb 08:59:53 09:01:12 11° 90° (E) 09:02:31 145.935
CANX-2 07 Feb 09:04:28 09:08:45 76° 285° (WNW) 09:13:03 2200.000
DOVE 4 07 Feb 09:07:42 09:11:35 33° 290° (WNW) 09:15:19 437.250
GOMX 1 07 Feb 09:11:53 09:14:56 18° 297° (WNW) 09:17:54 467.674
CUBEBUG 2 07 Feb 09:14:53 09:18:43 34° 97° (E) 09:22:34 437.445
UWE-3 07 Feb 09:22:16 09:25:58 30° 96° (E) 09:29:43 435.000/436.395/437.385
UNISAT 6 07 Feb 09:28:54 09:32:41 30° 69° (ENE) 09:36:27 437.425
Oscar 11 07 Feb 09:35:23 09:39:28 39° 98° (E) 09:43:32 145.826/435.025
CUTE 1.7 + AOD 2 07 Feb 09:56:19 09:59:48 25° 292° (WNW) 10:03:16 437.475
COMPASS 1 07 Feb 09:59:03 10:02:58 38° 289° (WNW) 10:06:52 437.405
Cosmos 2499 07 Feb 09:59:55 10:08:00 46° 87° (E) 10:16:18 435.465 / 435.565
SEEDS 07 Feb 10:08:07 10:11:33 24° 292° (WNW) 10:14:58 437.485
ANTELSAT 07 Feb 10:13:21 10:17:43 89° 271° (W) 10:22:01 437.575/2403.000
POLYITAN 1 07 Feb 10:17:56 10:21:27 26° 68° (ENE) 10:24:58 437.675
QB50P2 07 Feb 10:18:41 10:22:15 27° 68° (ENE) 10:25:50 145.880/145.840
TIGRISAT 07 Feb 10:21:19 10:25:40 77° 258° (WSW) 10:29:58 435.000
ZACube-1 07 Feb 10:22:59 10:27:11 80° 284° (WNW) 10:31:26 437.345
CINEMA 3 07 Feb 10:25:28 10:27:54 15° 296° (WNW) 10:30:19 145.822/145.860
GONETS M04 07 Feb 10:27:12 10:35:46 63° 282° (WNW) 10:44:27
AAUSAT CUBESAT 2 07 Feb 10:31:12 10:34:26 22° 293° (WNW) 10:37:39 437.432
DELFI C3 07 Feb 10:32:57 10:37:01 84° 282° (WNW) 10:41:04 145.870
FUNcube-1 07 Feb 10:33:42 10:37:51 63° 286° (WNW) 10:42:03 145.935
BUGSAT 1 07 Feb 10:38:07 10:41:19 21° 66° (ENE) 10:44:29 437.445
O/OREOS (USA 219) 07 Feb 10:39:08 10:41:47 15° 309° (NW) 10:44:26 437.305
HO-68 07 Feb 10:45:10 10:50:49 26° 303° (WNW) 10:56:28 435.675
POPSAT HIP 1 07 Feb 10:48:33 10:52:41 53° 73° (ENE) 10:56:50 437.405
PCSat 07 Feb 10:50:30 10:54:17 20° 106° (ESE) 10:58:05 145.827
CUBEBUG 2 07 Feb 10:52:03 10:55:10 21° 293° (WNW) 10:58:17 437.445
ESTCUBE 1 07 Feb 10:52:49 10:55:21 15° 91° (E) 10:57:52 437.505/2401.250
RS-15 07 Feb 10:54:58 11:03:15 25° 100° (E) 11:11:47 29.354- 29.394
NANOSAT C BR1 07 Feb 10:55:07 10:59:17 62° 74° (ENE) 11:03:28 145.865
DUCHIFAT 1 07 Feb 10:57:54 11:02:04 64° 74° (ENE) 11:06:16 145.980
UWE-3 07 Feb 10:59:00 11:02:19 23° 293° (WNW) 11:05:41 435.000/436.395/437.385
QB50P1 07 Feb 11:01:23 11:05:37 76° 75° (ENE) 11:09:52 145.935-145.965
AO-85 07 Feb 11:05:25 11:10:23 41° 115° (ESE) 11:15:30 145.980
UNISAT 6 07 Feb 11:05:52 11:09:26 24° 265° (W) 11:12:58 437.425
HUMSAT D 07 Feb 11:07:32 11:11:42 85° 286° (WNW) 11:15:53 437.325/437.525
CUBEBUG 1 07 Feb 11:11:10 11:13:55 16° 92° (E) 11:16:39 437.445
UKube-1 07 Feb 11:12:01 11:14:58 18° 93° (E) 11:17:54 .
Oscar 11 07 Feb 11:12:09 11:15:20 20° 294° (WNW) 11:18:32 145.826/435.025
DX 1 07 Feb 11:18:13 11:21:48 24° 95° (E) 11:25:21 434.975-435.025
AIST 1 07 Feb 11:20:55 11:25:17 68° 95° (E) 11:29:41
50 SAT 07 Feb 11:21:17 11:24:37 29° 97° (E) 11:27:57 437.505
Oscar 19 07 Feb 11:40:52 11:43:40 15° 59° (ENE) 11:46:28 437.125/150
CUSAT 1 07 Feb 11:48:31 11:50:56 12° 53° (NE) 11:53:11 437.405
Cosmos 2499 07 Feb 11:53:01 12:01:09 43° 288° (WNW) 12:09:33 435.465 / 435.565
POLYITAN 1 07 Feb 11:53:30 11:57:11 28° 264° (W) 12:00:52 437.675
QB50P2 07 Feb 11:54:23 11:58:00 27° 264° (W) 12:01:38 145.880/145.840
DANDE 07 Feb 11:57:11 11:59:17 11° 49° (NE) 12:01:17 436.750
VELOX 1 07 Feb 12:01:41 12:06:07 67° 102° (ESE) 12:10:29 145.980
BUGSAT 1 07 Feb 12:12:37 12:16:29 35° 262° (W) 12:20:21 437.445
AISAT 07 Feb 12:17:50 12:22:16 78° 285° (WNW) 12:26:39 437.250
POPSAT HIP 1 07 Feb 12:26:38 12:28:49 14° 269° (W) 12:30:58 437.405
ESTCUBE 1 07 Feb 12:28:03 12:32:32 57° 287° (WNW) 12:36:58 437.505/2401.250
GONETS M04 07 Feb 12:31:00 12:34:40 13° 306° (NW) 12:38:21
PCSat 07 Feb 12:31:48 12:37:10 62° 303° (WNW) 12:42:34 145.827
NANOSAT C BR1 07 Feb 12:33:54 12:35:27 12° 270° (W) 12:36:59 145.865
DUCHIFAT 1 07 Feb 12:36:50 12:38:12 11° 270° (W) 12:39:35 145.980
JAS-2 07 Feb 12:39:46 12:46:56 44° 67° (ENE) 12:53:34 435.910
AO-7 07 Feb 12:43:01 12:45:05 11° 39° (NE) 12:47:10 29.400- 29.500
ITAMSAT 1 07 Feb 12:44:27 12:46:13 12° 56° (NE) 12:47:57 435.822/435.867
AO-85 07 Feb 12:46:01 12:50:59 36° 314° (NW) 12:56:04 145.980
CUBEBUG 1 07 Feb 12:46:15 12:50:28 47° 288° (WNW) 12:54:38 437.445
UKube-1 07 Feb 12:47:07 12:51:13 42° 289° (WNW) 12:55:18 .
DX 1 07 Feb 12:54:09 12:58:01 31° 292° (WNW) 13:01:51 434.975-435.025
50 SAT 07 Feb 12:55:39 12:58:30 21° 293° (WNW) 13:01:22 437.505
SO-50 07 Feb 12:57:36 13:00:07 14° 33° (NNE) 13:02:37 436.795
SPROUT 07 Feb 13:01:11 13:05:28 88° 284° (WNW) 13:09:44 437.525
AIST 1 07 Feb 13:01:46 13:03:24 12° 293° (WNW) 13:05:02
RS-15 07 Feb 13:02:52 13:14:02 87° 302° (WNW) 13:25:54 29.354- 29.394
YUBILEINY 07 Feb 13:16:32 13:22:21 19° 59° (ENE) 13:28:06 435.215
Oscar 19 07 Feb 13:17:07 13:22:19 79° 256° (WSW) 13:27:32 437.125/150
TISAT 1 07 Feb 13:21:21 13:25:28 56° 101° (E) 13:29:33 437.305
Gurwin Techsat 1B 07 Feb 13:25:13 13:30:17 48° 70° (ENE) 13:35:23 435.225
CUSAT 1 07 Feb 13:28:26 13:34:53 78° 78° (ENE) 13:39:40 437.405
SWISSCUBE 07 Feb 13:36:33 13:39:42 17° 92° (E) 13:42:50 437.505
DANDE 07 Feb 13:37:01 13:44:27 56° 74° (ENE) 13:50:11 436.750
VELOX 1 07 Feb 13:39:56 13:42:02 13° 299° (WNW) 13:44:09 145.980
ITUPSAT 1 07 Feb 14:10:56 14:15:19 33° 97° (E) 14:19:38 437.325
PCSat 07 Feb 14:19:06 14:21:43 13° 325° (NW) 14:24:20 145.827
ITAMSAT 1 07 Feb 14:19:38 14:24:49 81° 74° (ENE) 14:30:03 435.822/435.867
BEESAT 07 Feb 14:21:10 14:25:44 43° 99° (E) 14:30:18 436.000
JAS-2 07 Feb 14:24:42 14:31:53 41° 263° (W) 14:38:39 435.910
AO-7 07 Feb 14:27:57 14:35:45 45° 61° (ENE) 14:43:32 29.400- 29.500
AO-85 07 Feb 14:31:55 14:33:10 11° 336° (NNW) 14:34:23 145.980
SO-50 07 Feb 14:36:44 14:41:35 67° 53° (NE) 14:46:14 436.795
Cosmos 2504 07 Feb 14:43:47 14:47:46 14° 54° (NE) 14:51:41 435.465 / 435.565
TISAT 1 07 Feb 14:58:30 15:00:42 14° 297° (WNW) 15:02:52 437.305
Gurwin Techsat 1B 07 Feb 15:06:21 15:10:28 23° 267° (W) 15:14:36 435.225
KKS-1 07 Feb 15:10:05 15:13:15 19° 93° (E) 15:16:24 437.445
YUBILEINY 07 Feb 15:11:43 15:20:38 83° 81° (E) 15:29:28 435.215
CUSAT 1 07 Feb 15:13:02 15:15:48 14° 284° (WNW) 15:18:17 437.405
SWISSCUBE 07 Feb 15:13:08 15:17:49 53° 288° (WNW) 15:22:29 437.505
M-CUBED/EXP-1 PRIME 07 Feb 15:14:46 15:18:24 52° 69° (ENE) 15:21:49 437.505
Cosmos 2491 07 Feb 15:16:56 15:25:04 47° 88° (E) 15:33:13 435.465 / 435.565
RS-15 07 Feb 15:18:14 15:28:19 34° 331° (NNW) 15:38:56 29.354- 29.394
DANDE 07 Feb 15:20:56 15:26:41 26° 278° (W) 15:31:27 436.750
AUBIESAT-1 07 Feb 15:27:03 15:30:43 60° 69° (ENE) 15:34:09 437.475
HORYU 2 07 Feb 15:35:21 15:39:25 38° 70° (ENE) 15:43:31 437.375
ITUPSAT 1 07 Feb 15:48:57 15:53:02 28° 294° (WNW) 15:57:07 437.325
BEESAT 07 Feb 15:59:35 16:03:15 22° 296° (WNW) 16:06:56 436.000
ITAMSAT 1 07 Feb 16:02:45 16:04:54 12° 271° (W) 16:07:04 435.822/435.867
SO-50 07 Feb 16:18:42 16:21:30 16° 252° (WSW) 16:24:13 436.795
MOZHAYETS 4 07 Feb 16:19:13 16:23:37 41° 98° (E) 16:28:00
AO-7 07 Feb 16:20:35 16:28:28 45° 260° (W) 16:36:25 29.400- 29.500
ISS 07 Feb 16:28:12 16:30:35 19° 134° (SE) 16:32:58 145.825
Cosmos 2504 07 Feb 16:34:34 16:43:15 64° 78° (ENE) 16:51:20 435.465 / 435.565
STARS 07 Feb 16:35:51 16:40:15 85° 106° (ESE) 16:44:36 437.465
KKS-1 07 Feb 16:45:50 16:50:01 41° 289° (WNW) 16:54:10 437.445
M-CUBED/EXP-1 PRIME 07 Feb 16:52:31 16:53:16 10° 262° (W) 16:54:00 437.505
LilacSat-2 07 Feb 16:58:52 17:00:49 14° 65° (ENE) 17:02:47 437.200
YUBILEINY 07 Feb 17:10:14 17:16:17 21° 282° (WNW) 17:22:19 435.215
BEESAT 3 07 Feb 17:11:45 17:13:37 13° 109° (ESE) 17:15:30 437.485
HORYU 2 07 Feb 17:12:47 17:16:07 21° 266° (W) 17:19:27 437.375
Cosmos 2491 07 Feb 17:13:56 17:21:59 40° 288° (WNW) 17:30:05 435.465 / 435.565
CUTE-I 07 Feb 17:17:26 17:22:14 36° 67° (ENE) 17:27:05 437.470
BRITE-PL 07 Feb 17:22:03 17:26:27 24° 64° (ENE) 17:30:46 437.365/2234.400
O/OREOS (USA 219) 07 Feb 17:28:14 17:31:22 18° 53° (NE) 17:34:28 437.305
Cubesat XI-IV 07 Feb 17:29:59 17:35:03 46° 69° (ENE) 17:40:09 437.490
BEESAT 2 07 Feb 17:30:56 17:32:59 14° 110° (ESE) 17:35:02 435.950
RS-15 07 Feb 17:36:28 17:45:44 25° 6° (N) 17:55:15 29.354- 29.394
HO-68 07 Feb 17:43:58 17:46:19 12° 47° (NE) 17:48:41 435.675
MOZHAYETS 4 07 Feb 17:57:00 18:00:31 22° 295° (WNW) 18:04:03
AO-85 07 Feb 17:57:57 17:59:45 12° 26° (NNE) 18:01:30 145.980
ISS 07 Feb 18:03:35 18:06:47 55° 331° (NNW) 18:09:59 145.825
STARS 07 Feb 18:15:08 18:15:56 10° 301° (WNW) 18:16:44 437.465
Cosmos 2504 07 Feb 18:28:55 18:35:54 28° 279° (W) 18:42:33 435.465 / 435.565
CUBESAT XI-V 07 Feb 18:29:26 18:34:11 85° 287° (WNW) 18:38:52 437.345
LilacSat-2 07 Feb 18:31:04 18:34:46 46° 261° (W) 18:38:28 437.200
DOVE 4 07 Feb 18:35:52 18:40:13 29° 68° (ENE) 18:44:24 437.250
GOMX 1 07 Feb 18:40:24 18:45:44 58° 73° (ENE) 18:50:53 467.674
GONETS M04 07 Feb 18:41:44 18:46:17 15° 56° (NE) 18:50:50
BEESAT 3 07 Feb 18:46:58 18:50:54 59° 306° (NW) 18:54:52 437.485
CUTE-I 07 Feb 18:57:40 19:02:18 30° 264° (W) 19:06:59 437.470
BRITE-PL 07 Feb 18:58:55 19:04:31 56° 261° (W) 19:10:02 437.365/2234.400
AIST 2 07 Feb 19:05:21 19:07:44 15° 110° (ESE) 19:10:07 435.215
BEESAT 2 07 Feb 19:06:27 19:10:25 57° 306° (NW) 19:14:25 435.950
O/OREOS (USA 219) 07 Feb 19:06:38 19:11:08 56° 251° (WSW) 19:15:38 437.305
Cubesat XI-IV 07 Feb 19:11:08 19:15:20 23° 267° (W) 19:19:34 437.490
CUTE 1.7 + AOD 2 07 Feb 19:14:03 19:17:27 24° 68° (ENE) 19:20:53 437.475
COMPASS 1 07 Feb 19:16:43 19:19:05 15° 64° (ENE) 19:21:29 437.405
SEEDS 07 Feb 19:25:02 19:28:25 24° 68° (ENE) 19:31:48 437.485
HO-68 07 Feb 19:25:33 19:32:30 56° 67° (ENE) 19:39:30 435.675
PCSat 07 Feb 19:36:09 19:40:25 23° 44° (NE) 19:44:41 145.827
AO-85 07 Feb 19:36:44 19:41:45 43° 49° (NE) 19:46:21 145.980
PRISM 07 Feb 19:38:06 19:40:53 17° 93° (E) 19:43:40 437.425
ISS 07 Feb 19:41:19 19:43:45 19° 350° (N) 19:46:11 145.825
STRAND 1 07 Feb 19:44:23 19:49:33 67° 103° (ESE) 19:54:41 437.568
AAUSAT CUBESAT 2 07 Feb 19:46:41 19:50:05 25° 68° (ENE) 19:53:30 437.432
CINEMA 3 07 Feb 19:49:01 19:53:33 51° 73° (ENE) 19:57:54 145.822/145.860
RS-15 07 Feb 19:51:00 20:02:27 45° 39° (NE) 20:14:05 29.354- 29.394
Cosmos 2499 07 Feb 19:51:50 19:57:03 17° 58° (ENE) 20:02:02 435.465 / 435.565
FUNcube-1 07 Feb 19:57:21 19:58:20 11° 61° (ENE) 19:59:18 145.935
CANX-2 07 Feb 19:57:43 20:01:54 83° 79° (E) 20:06:09 2200.000
CUBESAT XI-V 07 Feb 20:09:55 20:10:47 10° 301° (WNW) 20:11:39 437.345
DOVE 4 07 Feb 20:13:04 20:17:47 36° 263° (W) 20:22:20 437.250
CUBEBUG 2 07 Feb 20:13:49 20:17:42 33° 70° (ENE) 20:21:31 437.445
UWE-3 07 Feb 20:20:15 20:23:53 28° 69° (ENE) 20:27:29 435.000/436.395/437.385
GOMX 1 07 Feb 20:20:16 20:24:06 19° 269° (W) 20:27:51 467.674
Oscar 11 07 Feb 20:30:55 20:34:46 33° 70° (ENE) 20:38:38 145.826/435.025
GONETS M04 07 Feb 20:36:11 20:44:58 69° 79° (E) 20:53:46
AIST 2 07 Feb 20:41:41 20:45:47 56° 306° (NW) 20:49:55 435.215
CUTE 1.7 + AOD 2 07 Feb 20:49:30 20:53:12 29° 264° (W) 20:56:55 437.475
COMPASS 1 07 Feb 20:50:14 20:54:15 50° 260° (W) 20:58:20 437.405
SEEDS 07 Feb 21:00:22 21:04:01 29° 264° (W) 21:07:42 437.485
PRISM 07 Feb 21:12:27 21:16:25 41° 289° (WNW) 21:20:20 437.425
HO-68 07 Feb 21:14:28 21:20:32 29° 265° (W) 21:26:40 435.675
AO-85 07 Feb 21:17:46 21:22:02 27° 249° (WSW) 21:25:59 145.980
ISS 07 Feb 21:18:38 21:21:03 19° 10° (N) 21:23:29 145.825
PCSat 07 Feb 21:18:54 21:24:18 66° 244° (WSW) 21:29:39 145.827
ZACube-1 07 Feb 21:19:21 21:23:36 87° 77° (ENE) 21:27:49 437.345
DELFI C3 07 Feb 21:19:46 21:23:41 61° 74° (ENE) 21:27:38 145.870
AAUSAT CUBESAT 2 07 Feb 21:21:58 21:25:30 27° 265° (W) 21:29:05 437.432
STRAND 1 07 Feb 21:24:54 21:28:10 17° 299° (WNW) 21:31:26 437.568
CINEMA 3 07 Feb 21:27:58 21:30:56 17° 268° (W) 21:33:49 145.822/145.860
AIST 1 07 Feb 21:28:03 21:31:08 18° 70° (ENE) 21:34:10
FUNcube-1 07 Feb 21:29:47 21:34:00 75° 257° (WSW) 21:38:11 145.935
AISAT 07 Feb 21:42:47 21:44:19 12° 60° (ENE) 21:45:51 437.250
Cosmos 2499 07 Feb 21:43:13 21:51:49 80° 81° (E) 21:59:41 435.465 / 435.565
CUBEBUG 2 07 Feb 21:50:57 21:54:23 22° 266° (W) 21:57:46 437.445
ESTCUBE 1 07 Feb 21:53:26 21:56:10 16° 62° (ENE) 21:58:55 437.505/2401.250
UWE-3 07 Feb 21:56:44 22:00:20 26° 265° (W) 22:03:53 435.000/436.395/437.385
HUMSAT D 07 Feb 21:59:28 22:03:33 72° 75° (ENE) 22:07:38 437.325/437.525
50 SAT 07 Feb 22:03:17 22:05:42 17° 66° (ENE) 22:08:08 437.505
RS-15 07 Feb 22:03:43 22:15:45 69° 244° (WSW) 22:27:54 29.354- 29.394
ANTELSAT 07 Feb 22:05:06 22:07:59 17° 93° (E) 22:10:53 437.575/2403.000
Oscar 11 07 Feb 22:07:35 22:10:57 22° 266° (W) 22:14:21 145.826/435.025
UKube-1 07 Feb 22:07:41 22:10:37 18° 64° (ENE) 22:13:34 .
CUBEBUG 1 07 Feb 22:08:13 22:11:01 17° 63° (ENE) 22:13:49 437.445
TIGRISAT 07 Feb 22:12:38 22:15:47 20° 93° (E) 22:18:59 435.000
DX 1 07 Feb 22:14:35 22:18:09 25° 66° (ENE) 22:21:42 434.975-435.025
GONETS M04 07 Feb 22:34:10 22:40:59 26° 279° (W) 22:47:50
QB50P1 07 Feb 22:47:45 22:49:04 11° 90° (E) 22:50:23 145.935-145.965
ISS 07 Feb 22:54:49 22:58:02 56° 30° (NNE) 23:01:13 145.825
UNISAT 6 07 Feb 22:55:33 22:59:49 60° 101° (E) 23:04:09 437.425
DELFI C3 07 Feb 22:58:13 22:59:00 10° 271° (W) 22:59:48 145.870
VELOX 1 07 Feb 22:59:29 23:03:55 66° 74° (ENE) 23:08:22 145.980
AIST 1 07 Feb 23:04:51 23:08:55 39° 268° (W) 23:12:56
AISAT 07 Feb 23:15:41 23:20:10 80° 258° (WSW) 23:24:40 437.250
ESTCUBE 1 07 Feb 23:28:04 23:32:31 57° 260° (W) 23:37:00 437.505/2401.250
50 SAT 07 Feb 23:36:05 23:39:29 34° 262° (W) 23:42:54 437.505
POLYITAN 1 07 Feb 23:37:08 23:41:08 41° 99° (E) 23:45:06 437.675
QB50P2 07 Feb 23:37:53 23:41:56 43° 99° (E) 23:45:56 145.880/145.840
Cosmos 2499 07 Feb 23:37:58 23:43:47 21° 282° (WNW) 23:49:21 435.465 / 435.565
ANTELSAT 07 Feb 23:40:49 23:44:55 44° 288° (WNW) 23:49:04 437.575/2403.000
UKube-1 07 Feb 23:42:11 23:46:20 45° 260° (W) 23:50:32 .
CUBEBUG 1 07 Feb 23:42:34 23:46:54 52° 260° (W) 23:51:15 437.445
TIGRISAT 07 Feb 23:48:38 23:52:37 38° 289° (WNW) 23:56:39 435.000
DX 1 07 Feb 23:50:15 23:54:12 32° 263° (W) 23:58:10 434.975-435.025
BUGSAT 1 07 Feb 23:53:44 23:57:17 29° 96° (E) 00:00:48 437.445
SPROUT 07 Feb 23:55:19 23:59:37 77° 76° (ENE) 00:03:56 437.525
POPSAT HIP 1 08 Feb 00:08:10 00:12:24 89° 267° (W) 00:16:35 437.405
TISAT 1 08 Feb 00:13:40 00:17:43 46° 72° (ENE) 00:21:46 437.305
NANOSAT C BR1 08 Feb 00:14:24 00:18:37 78° 285° (WNW) 00:22:47 145.865
DUCHIFAT 1 08 Feb 00:16:55 00:21:06 77° 284° (WNW) 00:25:16 145.980
RS-15 08 Feb 00:19:32 00:25:52 16° 265° (W) 00:32:16 29.354- 29.394
QB50P1 08 Feb 00:21:07 00:25:17 63° 286° (WNW) 00:29:25 145.935-145.965
ISS 08 Feb 00:31:53 00:34:13 18° 226° (SW) 00:36:33 145.825
UNISAT 6 08 Feb 00:33:51 00:36:05 14° 297° (WNW) 00:38:19 437.425
VELOX 1 08 Feb 00:38:59 00:40:50 12° 270° (W) 00:42:41 145.980
SWISSCUBE 08 Feb 00:43:46 00:47:26 23° 64° (ENE) 00:51:08 437.505
CUSAT 1 08 Feb 00:50:49 00:55:37 18° 79° (E) 01:00:29 437.405
DANDE 08 Feb 01:06:29 01:09:41 13° 74° (ENE) 01:12:59 436.750
POLYITAN 1 08 Feb 01:13:46 01:16:39 18° 295° (WNW) 01:19:32 437.675
QB50P2 08 Feb 01:14:37 01:17:25 18° 296° (WNW) 01:20:13 145.880/145.840
ITUPSAT 1 08 Feb 01:18:22 01:22:51 42° 70° (ENE) 01:27:22 437.325
Cosmos 2491 08 Feb 01:26:23 01:33:08 24° 64° (ENE) 01:39:53 435.465 / 435.565
BEESAT 3 08 Feb 01:27:25 01:29:33 14° 39° (NE) 01:31:41 437.485
Oscar 19 08 Feb 01:28:11 01:32:50 34° 97° (E) 01:37:27 437.125/150
BEESAT 08 Feb 01:28:12 01:32:50 54° 72° (ENE) 01:37:30 436.000
PHONESAT 2.4 08 Feb 01:28:48 01:29:50 11° 148° (SSE) 01:30:51 2401.200-2431.200
BUGSAT 1 08 Feb 01:29:21 01:32:33 23° 293° (WNW) 01:35:43 437.445
JAS-2 08 Feb 01:34:35 01:39:25 27° 93° (E) 01:43:53 435.910
Gurwin Techsat 1B 08 Feb 01:41:34 01:45:05 18° 91° (E) 01:48:35 435.225
BEESAT 2 08 Feb 01:47:23 01:49:40 15° 39° (NE) 01:51:57 435.950
TISAT 1 08 Feb 01:51:00 01:53:37 16° 268° (W) 01:56:14 437.305
KKS-1 08 Feb 02:09:05 02:12:22 21° 65° (ENE) 02:15:40 437.445
SWISSCUBE 08 Feb 02:20:28 02:24:58 42° 261° (W) 02:29:31 437.505
YUBILEINY 08 Feb 02:20:34 02:26:13 19° 77° (ENE) 02:31:53 435.215
CUSAT 1 08 Feb 02:28:53 02:36:43 81° 97° (E) 02:44:52 437.405
ITAMSAT 1 08 Feb 02:32:09 02:36:34 27° 95° (E) 02:40:57 435.822/435.867
AO-7 08 Feb 02:33:24 02:34:24 10° 85° (E) 02:35:24 29.400- 29.500
DANDE 08 Feb 02:43:27 02:50:53 64° 94° (E) 02:59:15 436.750
ITUPSAT 1 08 Feb 02:57:14 03:00:51 21° 267° (W) 03:04:31 437.325
PHONESAT 2.4 08 Feb 03:03:30 03:06:32 36° 164° (SSE) 03:09:35 2401.200-2431.200
BEESAT 3 08 Feb 03:03:52 03:07:51 80° 238° (WSW) 03:11:46 437.485
Oscar 19 08 Feb 03:07:36 03:12:05 31° 294° (WNW) 03:16:30 437.125/150
BEESAT 08 Feb 03:07:55 03:10:57 17° 268° (W) 03:14:00 436.000
JAS-2 08 Feb 03:19:19 03:24:42 40° 293° (WNW) 03:29:39 435.910
Gurwin Techsat 1B 08 Feb 03:20:11 03:25:26 61° 288° (WNW) 03:30:40 435.225
MOZHAYETS 4 08 Feb 03:21:47 03:26:04 42° 71° (ENE) 03:30:23
Cosmos 2491 08 Feb 03:22:13 03:30:57 78° 265° (W) 03:39:42 435.465 / 435.565
BEESAT 2 08 Feb 03:24:04 03:28:05 76° 237° (WSW) 03:32:01 435.950
AIST 2 08 Feb 03:24:51 03:27:32 16° 40° (NE) 03:30:12 435.215
STARS 08 Feb 03:32:58 03:37:23 83° 76° (ENE) 03:41:49 437.465
KKS-1 08 Feb 03:44:27 03:48:41 41° 261° (W) 03:52:55 437.445
CUBESAT XI-V 08 Feb 03:59:16 04:01:10 12° 60° (ENE) 04:03:03 437.345
ITAMSAT 1 08 Feb 04:11:15 04:16:07 40° 292° (WNW) 04:20:58 435.822/435.867
YUBILEINY 08 Feb 04:12:57 04:21:44 88° 273° (W) 04:30:39 435.215
CUSAT 1 08 Feb 04:13:31 04:19:52 25° 296° (WNW) 04:26:16 437.405
AO-7 08 Feb 04:20:33 04:28:49 62° 104° (ESE) 04:36:59 29.400- 29.500
DANDE 08 Feb 04:27:40 04:34:28 32° 295° (WNW) 04:41:51 436.750
M-CUBED/EXP-1 PRIME 08 Feb 04:27:54 04:30:54 30° 104° (ESE) 04:34:02 437.505
AUBIESAT-1 08 Feb 04:39:33 04:42:43 35° 104° (ESE) 04:46:00 437.475
PHONESAT 2.4 08 Feb 04:40:22 04:43:36 58° 180° (S) 04:46:50 2401.200-2431.200
SO-50 08 Feb 04:52:52 04:56:13 19° 110° (ESE) 04:59:35 436.795
MOZHAYETS 4 08 Feb 05:00:07 05:03:26 20° 268° (W) 05:06:46
HORYU 2 08 Feb 05:01:28 05:05:55 69° 103° (ESE) 05:10:20 437.375
AIST 2 08 Feb 05:02:22 05:06:30 68° 239° (WSW) 05:10:33 435.215
Cosmos 2504 08 Feb 05:12:28 05:20:37 53° 89° (E) 05:29:08 435.465 / 435.565
Cosmos 2491 08 Feb 05:21:51 05:26:15 15° 286° (WNW) 05:30:40 435.465 / 435.565
STRAND 1 08 Feb 05:24:57 05:27:38 14° 59° (ENE) 05:30:21 437.568
CUBESAT XI-V 08 Feb 05:33:10 05:37:52 82° 258° (WSW) 05:42:37 437.345
CUTE-I 08 Feb 05:35:14 05:37:38 13° 89° (E) 05:40:03 437.470
Cubesat XI-IV 08 Feb 05:47:23 05:50:53 17° 91° (E) 05:54:22 437.490
M-CUBED/EXP-1 PRIME 08 Feb 06:03:15 06:05:24 16° 298° (WNW) 06:07:37 437.505
LilacSat-2 08 Feb 06:04:37 06:07:07 17° 93° (E) 06:09:36 437.200
YUBILEINY 08 Feb 06:13:51 06:19:54 20° 299° (WNW) 06:26:01 435.215
AO-7 08 Feb 06:13:58 06:21:07 33° 303° (WNW) 06:28:14 29.400- 29.500
AUBIESAT-1 08 Feb 06:15:05 06:17:05 15° 299° (WNW) 06:19:08 437.475
PHONESAT 2.4 08 Feb 06:17:39 06:20:39 34° 197° (SSW) 06:23:39 2401.200-2431.200
PRISM 08 Feb 06:29:06 06:31:30 15° 63° (ENE) 06:33:56 437.425
SO-50 08 Feb 06:31:23 06:36:15 61° 307° (NW) 06:41:10 436.795
HORYU 2 08 Feb 06:39:50 06:41:55 13° 299° (WNW) 06:44:01 437.375
GOMX 1 08 Feb 06:43:48 06:46:00 13° 88° (E) 06:48:09 467.674
STRAND 1 08 Feb 07:01:02 07:06:08 80° 257° (WSW) 07:11:18 437.568
BRITE-PL 08 Feb 07:03:52 07:08:33 47° 98° (E) 07:12:52 437.365/2234.400
Cosmos 2504 08 Feb 07:06:31 07:14:17 37° 290° (WNW) 07:22:24 435.465 / 435.565
CUTE-I 08 Feb 07:12:55 07:18:20 82° 285° (WNW) 07:23:42 437.470
